Weather History for Somerset, KY

Change the Weather History Date:

Sunday, February 17, 2013

  Actual Average Record
Temperature  
Mean Temperature 29 °F -  
Max Temperature 37 °F 50 °F 69 °F (2011)
Min Temperature 21 °F 31 °F 19 °F (2007)
Degree Days  
Heating Degree Days 36    
Moisture  
Dew Point 11 °F    
Average Humidity 51    
Maximum Humidity 68    
Minimum Humidity 30    
Precipitation  
Precipitation 0.00 in - - ()
Sea Level Pressure  
Sea Level Pressure 30.21 in    
Wind  
Wind Speed 4 mph (WNW)    
Max Wind Speed 14 mph    
Max Gust Speed 17 mph    
Visibility 10 miles    
Events      
Averages and records for this station are not official NWS values.
T = Trace of Precipitation, MM = Missing Value Source: NWS Daily Summary

Daily Weather History Graph

Daily Weather History Graph

Search for Another Location

Airport:

Trip Planner

Search our weather history database for the weather conditions in past years. The results will help you decide how hot, cold, wet, or windy it might be!

Date:

Astronomy

Feb. 17, 2013 Rise Set
Actual Time 7:24 AM EST 6:20 PM EST
Civil Twilight 6:58 AM EST 6:47 PM EST
Nautical Twilight 6:27 AM EST 7:17 PM EST
Astronomical Twilight 5:57 AM EST 7:47 PM EST
Moon 11:28 AM EST (2/17) 1:04 AM EST (2/17)
Length of Visible Light 11h 49m
Length of Day
10h 56m
Waxing Crescent, 49% of the Moon is Illuminated
Feb 17
Waxing Crescent
Feb 17
First Quarter
Feb 25
Full
Mar 4
Last Quarter
Mar 11
New

Hourly Weather History & Observations

Time (EST) Temp. Windchill Dew Point Humidity Pressure Visibility Wind Dir Wind Speed Gust Speed Precip Events Conditions
12:15 AM 26.6 °F 21.2 °F 8.6 °F 47% 30.16 in 10.0 mi NNW 4.6 mph - N/A   Scattered Clouds
12:35 AM 26.6 °F 21.2 °F 8.6 °F 47% 30.16 in 10.0 mi NNW 4.6 mph - N/A   Overcast
12:55 AM 26.6 °F 22.6 °F 10.4 °F 51% 30.17 in 10.0 mi NW 3.5 mph - N/A   Overcast
1:15 AM 26.6 °F - 10.4 °F 51% 30.17 in 10.0 mi Calm Calm - N/A   Overcast
1:35 AM 24.8 °F - 10.4 °F 54% 30.16 in 10.0 mi Calm Calm - N/A   Overcast
1:55 AM 24.8 °F - 10.4 °F 54% 30.16 in 10.0 mi Calm Calm - N/A   Mostly Cloudy
2:15 AM 23.0 °F - 10.4 °F 59% 30.16 in 10.0 mi Calm Calm - N/A   Scattered Clouds
2:35 AM 21.2 °F 16.4 °F 12.2 °F 68% 30.16 in 10.0 mi WSW 3.5 mph - N/A   Clear
2:55 AM 21.2 °F 13.6 °F 10.4 °F 63% 30.16 in 10.0 mi WSW 5.8 mph - N/A   Clear
3:15 AM 21.2 °F 12.6 °F 10.4 °F 63% 30.16 in 10.0 mi WSW 6.9 mph - N/A   Clear
3:35 AM 21.2 °F 13.6 °F 10.4 °F 63% 30.16 in 10.0 mi WSW 5.8 mph - N/A   Clear
3:55 AM 21.2 °F 16.4 °F 12.2 °F 68% 30.16 in 10.0 mi West 3.5 mph - N/A   Clear
4:15 AM 21.2 °F 16.4 °F 12.2 °F 68% 30.16 in 10.0 mi West 3.5 mph - N/A   Clear
4:35 AM 21.2 °F 16.4 °F 10.4 °F 63% 30.17 in 10.0 mi West 3.5 mph - N/A   Clear
4:55 AM 21.2 °F 16.4 °F 10.4 °F 63% 30.17 in 10.0 mi West 3.5 mph - N/A   Clear
5:15 AM 21.2 °F 14.9 °F 10.4 °F 63% 30.17 in 10.0 mi West 4.6 mph - N/A   Clear
5:35 AM 21.2 °F 14.9 °F 10.4 °F 63% 30.17 in 10.0 mi West 4.6 mph - N/A   Clear
5:55 AM 21.2 °F 13.6 °F 10.4 °F 63% 30.18 in 10.0 mi West 5.8 mph - N/A   Clear
6:15 AM 21.2 °F 14.9 °F 10.4 °F 63% 30.19 in 10.0 mi West 4.6 mph - N/A   Clear
6:35 AM 21.2 °F 16.4 °F 10.4 °F 63% 30.19 in 10.0 mi West 3.5 mph - N/A   Scattered Clouds
7:15 AM 21.2 °F - 10.4 °F 63% 30.20 in 10.0 mi Calm Calm - N/A   Clear
7:35 AM 21.2 °F - 12.2 °F 68% 30.21 in 10.0 mi Calm Calm - N/A   Clear
7:55 AM 21.2 °F 16.4 °F 12.2 °F 68% 30.22 in 10.0 mi West 3.5 mph - N/A   Clear
8:15 AM 23.0 °F - 12.2 °F 63% 30.22 in 10.0 mi Calm Calm - N/A   Clear
8:35 AM 23.0 °F 15.8 °F 14.0 °F 68% 30.23 in 10.0 mi West 5.8 mph - N/A   Clear
8:55 AM 24.8 °F 17.9 °F 14.0 °F 64% 30.24 in 10.0 mi West 5.8 mph - N/A   Clear
9:15 AM 26.6 °F 19.1 °F 14.0 °F 59% 30.25 in 10.0 mi WNW 6.9 mph - N/A   Clear
9:35 AM 28.4 °F 19.7 °F 14.0 °F 55% 30.25 in 10.0 mi WNW 9.2 mph - N/A   Clear
9:55 AM 28.4 °F 22.2 °F 14.0 °F 55% 30.26 in 10.0 mi WNW 5.8 mph - N/A   Clear
10:15 AM 30.2 °F 21.9 °F 14.0 °F 51% 30.26 in 10.0 mi WNW 9.2 mph - N/A   Clear
10:35 AM 30.2 °F 21.9 °F 14.0 °F 51% 30.27 in 10.0 mi West 9.2 mph 16.1 mph N/A   Clear
10:55 AM 30.2 °F 20.8 °F 14.0 °F 51% 30.27 in 10.0 mi West 11.5 mph 17.3 mph N/A   Scattered Clouds
11:15 AM 30.2 °F 23.4 °F 12.2 °F 47% 30.27 in 10.0 mi West 6.9 mph - N/A   Mostly Cloudy
11:35 AM 32.0 °F 26.4 °F 12.2 °F 44% 30.27 in 10.0 mi WNW 5.8 mph - N/A   Mostly Cloudy
11:55 AM 32.0 °F 23.6 °F 14.0 °F 48% 30.27 in 10.0 mi WNW 10.4 mph 17.3 mph N/A   Mostly Cloudy
12:15 PM 33.8 °F 24.3 °F 14.0 °F 44% 30.27 in 10.0 mi WNW 13.8 mph - N/A   Mostly Cloudy
12:35 PM 33.8 °F 26.4 °F 12.2 °F 41% 30.26 in 10.0 mi NNW 9.2 mph - N/A   Scattered Clouds
12:55 PM 33.8 °F 26.4 °F 12.2 °F 41% 30.25 in 10.0 mi WNW 9.2 mph - N/A   Scattered Clouds
1:15 PM 33.8 °F 25.3 °F 12.2 °F 41% 30.24 in 10.0 mi WNW 11.5 mph 17.3 mph N/A   Scattered Clouds
1:55 PM 35.6 °F 27.1 °F 10.4 °F 35% 30.23 in 10.0 mi WNW 12.7 mph 17.3 mph N/A   Scattered Clouds
2:15 PM 35.6 °F 27.5 °F 8.6 °F 33% 30.23 in 10.0 mi WNW 11.5 mph 16.1 mph N/A   Clear
2:35 PM 35.6 °F 28.6 °F 8.6 °F 33% 30.22 in 10.0 mi West 9.2 mph - N/A   Clear
2:55 PM 35.6 °F 28.6 °F 10.4 °F 35% 30.22 in 10.0 mi WNW 9.2 mph - N/A   Clear
3:15 PM 35.6 °F 31.7 °F 8.6 °F 33% 30.22 in 10.0 mi West 4.6 mph - N/A   Clear
3:35 PM 37.4 °F 32.1 °F 8.6 °F 30% 30.22 in 10.0 mi West 6.9 mph - N/A   Clear
3:55 PM 37.4 °F 31.4 °F 8.6 °F 30% 30.22 in 10.0 mi WNW 8.1 mph - N/A   Clear
4:15 PM 37.4 °F 31.4 °F 8.6 °F 30% 30.22 in 10.0 mi NW 8.1 mph - N/A   Clear
4:35 PM 37.4 °F 31.4 °F 8.6 °F 30% 30.22 in 10.0 mi WNW 8.1 mph - N/A   Clear
4:55 PM 37.4 °F 31.4 °F 8.6 °F 30% 30.22 in 10.0 mi NW 8.1 mph - N/A   Clear
5:15 PM 37.4 °F 31.4 °F 8.6 °F 30% 30.22 in 10.0 mi WNW 8.1 mph - N/A   Clear
5:35 PM 35.6 °F 32.8 °F 8.6 °F 33% 30.22 in 10.0 mi NW 3.5 mph - N/A   Clear
5:55 PM 35.6 °F 31.7 °F 8.6 °F 33% 30.22 in 10.0 mi WNW 4.6 mph - N/A   Clear
6:15 PM 35.6 °F - 8.6 °F 33% 30.22 in 10.0 mi Calm Calm - N/A   Clear
6:35 PM 35.6 °F - 8.6 °F 33% 30.22 in 10.0 mi Calm Calm - N/A   Clear
6:55 PM 33.8 °F - 8.6 °F 35% 30.22 in 10.0 mi Calm Calm - N/A   Clear
7:15 PM 32.0 °F - 10.4 °F 41% 30.22 in 10.0 mi Calm Calm - N/A   Clear
7:35 PM 32.0 °F - 12.2 °F 44% 30.22 in 10.0 mi Calm Calm - N/A   Clear
7:55 PM 30.2 °F - 12.2 °F 47% 30.22 in 10.0 mi Calm Calm - N/A   Clear
8:15 PM 30.2 °F - 15.8 °F 55% 30.22 in 10.0 mi Calm Calm - N/A   Clear
8:35 PM 30.2 °F - 14.0 °F 51% 30.22 in 10.0 mi Calm Calm - N/A   Clear
8:55 PM 28.4 °F - 14.0 °F 55% 30.22 in 10.0 mi Calm Calm - N/A   Clear
9:15 PM 28.4 °F - 14.0 °F 55% 30.23 in 10.0 mi Calm Calm - N/A   Clear
9:35 PM 28.4 °F - 14.0 °F 55% 30.23 in 10.0 mi Calm Calm - N/A   Clear
9:55 PM 28.4 °F - 12.2 °F 51% 30.24 in 10.0 mi Calm Calm - N/A   Clear
10:15 PM 28.4 °F - 14.0 °F 55% 30.24 in 10.0 mi Calm Calm - N/A   Clear
10:35 PM 26.6 °F - 14.0 °F 59% 30.23 in 10.0 mi Calm Calm - N/A   Clear
10:55 PM 26.6 °F - 15.8 °F 64% 30.23 in 10.0 mi Calm Calm - N/A   Clear
11:15 PM 26.6 °F - 14.0 °F 59% 30.23 in 10.0 mi Calm Calm - N/A   Clear
11:35 PM 26.6 °F - 14.0 °F 59% 30.23 in 10.0 mi Calm Calm - N/A   Clear
11:55 PM 26.6 °F - 14.0 °F 59% 30.23 in 10.0 mi Calm Calm - N/A   Clear